owner,sensor,date,latitude,longitude,vertical_datum,direction_of_sea_water_velocity,sea_water_speed,upward_sea_water_velocity,qcFlag 
TABS,ioos:station:wmo:42050:1,1997-04-01T00:00:00Z,28.8425,-94.2433,2.0,255.8479722,51.78146097,-99999.0,'11111222,11111222,99999999' 
TABS,ioos:station:wmo:42050:1,1997-04-01T00:30:00Z,28.8425,-94.2433,2.0,254.5167156,55.81553637,-99999.0,'11111222,11111222,99999999' 
TABS,ioos:station:wmo:42050:1,1997-04-01T01:00:00Z,28.8425,-94.2433,2.0,253.3714038,49.44781997,-99999.0,'11111222,11111222,99999999' 
TABS,ioos:station:wmo:42050:1,1997-04-01T01:30:00Z,28.8425,-94.2433,2.0,251.9721194,46.69221027,-99999.0,'11111222,11111222,99999999' 
TABS,ioos:station:wmo:42050:1,1997-04-01T02:00:00Z,28.8425,-94.2433,2.0,248.2310239,45.40808849,-99999.0,'11111222,11111222,99999999' 
TABS,ioos:station:wmo:42050:1,1997-04-01T02:30:00Z,28.8425,-94.2433,2.0,253.9018349,53.19581375,-99999.0,'11111222,11111222,99999999' 
TABS,ioos:station:wmo:42050:1,1997-04-01T03:00:00Z,28.8425,-94.2433,2.0,242.5801943,49.18554767,-99999.0,'11111222,11111222,99999999' 
TABS,ioos:station:wmo:42050:1,1997-04-01T03:30:00Z,28.8425,-94.2433,2.0,249.1152309,45.13531876,-99999.0,'11111222,11111222,99999999' 
TABS,ioos:station:wmo:42050:1,1997-04-01T04:00:00Z,28.8425,-94.2433,2.0,247.6034337,50.44499975,-99999.0,'11111222,11111222,99999999' 
TABS,ioos:station:wmo:42050:1,1997-04-01T04:30:00Z,28.8425,-94.2433,2.0,243.5789719,53.24094759,-99999.0,'11111222,11111222,99999999' 
TABS,ioos:station:wmo:42050:1,1997-04-01T05:00:00Z,28.8425,-94.2433,2.0,242.6808105,50.31141123,-99999.0,'11111222,11111222,99999999' 
TABS,ioos:station:wmo:42050:1,1997-04-01T05:30:00Z,28.8425,-94.2433,2.0,239.2229312,53.58673343,-99999.0,'11111222,11111222,99999999' 
TABS,ioos:station:wmo:42050:1,1997-04-01T06:00:00Z,28.8425,-94.2433,2.0,243.0183833,54.17688437,-99999.0,'11111222,11111222,99999999' 
TABS,ioos:station:wmo:42050:1,1997-04-01T06:30:00Z,28.8425,-94.2433,2.0,246.1667879,47.56604356,-99999.0,'11111222,11111222,99999999' 
TABS,ioos:station:wmo:42050:1,1997-04-01T07:00:00Z,28.8425,-94.2433,2.0,251.6628344,53.52795251,-99999.0,'11111222,11111222,99999999' 
TABS,ioos:station:wmo:42050:1,1997-04-01T07:30:00Z,28.8425,-94.2433,2.0,246.7177643,52.39657432,-99999.0,'11111222,11111222,99999999' 
TABS,ioos:station:wmo:42050:1,1997-04-01T08:00:00Z,28.8425,-94.2433,2.0,252.8333353,42.41970415,-99999.0,'11111222,11111222,99999999' 
TABS,ioos:station:wmo:42050:1,1997-04-01T08:30:00Z,28.8425,-94.2433,2.0,264.4637976,40.11710109,-99999.0,'11111222,11111222,99999999' 
TABS,ioos:station:wmo:42050:1,1997-04-01T09:00:00Z,28.8425,-94.2433,2.0,261.7718748,61.42221259,-99999.0,'11111222,11111222,99999999' 
TABS,ioos:station:wmo:42050:1,1997-04-01T09:30:00Z,28.8425,-94.2433,2.0,262.4267403,71.25144911,-99999.0,'11111222,11111222,99999999' 
TABS,ioos:station:wmo:42050:1,1997-04-01T10:00:00Z,28.8425,-94.2433,2.0,263.6821466,50.07407513,-99999.0,'11111222,11111222,99999999' 
TABS,ioos:station:wmo:42050:1,1997-04-01T10:30:00Z,28.8425,-94.2433,2.0,266.8249331,42.97595258,-99999.0,'11111222,11111222,99999999' 
TABS,ioos:station:wmo:42050:1,1997-04-01T11:00:00Z,28.8425,-94.2433,2.0,270.7569216,45.44396109,-99999.0,'11111222,11111222,99999999' 
TABS,ioos:station:wmo:42050:1,1997-04-01T11:30:00Z,28.8425,-94.2433,2.0,275.5741584,53.744102,-99999.0,'11111222,11111222,99999999' 
TABS,ioos:station:wmo:42050:1,1997-04-01T12:00:00Z,28.8425,-94.2433,2.0,277.9916247,52.50990383,-99999.0,'11111222,11111222,99999999' 
TABS,ioos:station:wmo:42050:1,1997-04-01T12:30:00Z,28.8425,-94.2433,2.0,272.6972293,66.52367548,-99999.0,'11111222,11111222,99999999' 
TABS,ioos:station:wmo:42050:1,1997-04-01T13:00:00Z,28.8425,-94.2433,2.0,276.9457867,64.0903027,-99999.0,'11111222,11111222,99999999' 
TABS,ioos:station:wmo:42050:1,1997-04-01T13:30:00Z,28.8425,-94.2433,2.0,274.7714349,64.4432929,-99999.0,'11111222,11111222,99999999' 
TABS,ioos:station:wmo:42050:1,1997-04-01T14:00:00Z,28.8425,-94.2433,2.0,275.6567409,61.99183979,-99999.0,'11111222,11111222,99999999' 
TABS,ioos:station:wmo:42050:1,1997-04-01T14:30:00Z,28.8425,-94.2433,2.0,273.4292658,59.85715413,-99999.0,'11111222,11111222,99999999' 
TABS,ioos:station:wmo:42050:1,1997-04-01T15:00:00Z,28.8425,-94.2433,2.0,271.9343137,48.59767999,-99999.0,'11111222,11111222,99999999' 
TABS,ioos:station:wmo:42050:1,1997-04-01T15:30:00Z,28.8425,-94.2433,2.0,269.7660383,36.80030571,-99999.0,'11111222,11111222,99999999' 
TABS,ioos:station:wmo:42050:1,1997-04-01T16:00:00Z,28.8425,-94.2433,2.0,268.1398681,32.04687972,-99999.0,'11111222,11111222,99999999' 
TABS,ioos:station:wmo:42050:1,1997-04-01T16:30:00Z,28.8425,-94.2433,2.0,265.2187064,30.35561563,-99999.0,'11111222,11111222,99999999' 
TABS,ioos:station:wmo:42050:1,1997-04-01T17:00:00Z,28.8425,-94.2433,2.0,266.8840473,41.03064465,-99999.0,'11111222,11111222,99999999' 
TABS,ioos:station:wmo:42050:1,1997-04-01T17:30:00Z,28.8425,-94.2433,2.0,260.0984006,45.07130462,-99999.0,'11111222,11111222,99999999' 
TABS,ioos:station:wmo:42050:1,1997-04-01T18:00:00Z,28.8425,-94.2433,2.0,256.5271102,44.12421671,-99999.0,'11111222,11111222,99999999' 
TABS,ioos:station:wmo:42050:1,1997-04-01T18:30:00Z,28.8425,-94.2433,2.0,253.8871782,49.94176609,-99999.0,'11111222,11111222,99999999' 
TABS,ioos:station:wmo:42050:1,1997-04-01T19:00:00Z,28.8425,-94.2433,2.0,247.397832,41.47538668,-99999.0,'11111222,11111222,99999999' 
TABS,ioos:station:wmo:42050:1,1997-04-01T19:30:00Z,28.8425,-94.2433,2.0,252.0413316,57.01783931,-99999.0,'11111222,11111222,99999999' 
TABS,ioos:station:wmo:42050:1,1997-04-01T20:00:00Z,28.8425,-94.2433,2.0,249.3841576,50.78184026,-99999.0,'11111222,11111222,99999999' 
TABS,ioos:station:wmo:42050:1,1997-04-01T20:30:00Z,28.8425,-94.2433,2.0,253.4445536,51.76588548,-99999.0,'11111222,11111222,99999999' 
TABS,ioos:station:wmo:42050:1,1997-04-01T21:00:00Z,28.8425,-94.2433,2.0,255.7110641,50.12047286,-99999.0,'11111222,11111222,99999999' 
TABS,ioos:station:wmo:42050:1,1997-04-01T21:30:00Z,28.8425,-94.2433,2.0,256.3246572,45.38659384,-99999.0,'11111222,11111222,99999999' 
TABS,ioos:station:wmo:42050:1,1997-04-01T22:00:00Z,28.8425,-94.2433,2.0,258.2110713,41.55649769,-99999.0,'11111222,11111222,99999999' 
TABS,ioos:station:wmo:42050:1,1997-04-01T22:30:00Z,28.8425,-94.2433,2.0,257.1363368,42.17850756,-99999.0,'11111222,11111222,99999999' 
TABS,ioos:station:wmo:42050:1,1997-04-01T23:00:00Z,28.8425,-94.2433,2.0,263.4016942,46.64895712,-99999.0,'11111222,11111222,99999999' 
TABS,ioos:station:wmo:42050:1,1997-04-01T23:30:00Z,28.8425,-94.2433,2.0,262.2866385,49.92164761,-99999.0,'11111222,11111222,99999999' 
TABS,ioos:station:wmo:42050:1,1997-04-02T00:00:00Z,28.8425,-94.2433,2.0,261.9572976,41.52843002,-99999.0,'11111222,11111222,99999999' 
TABS,ioos:station:wmo:42050:1,1997-04-02T00:30:00Z,28.8425,-94.2433,2.0,261.9963297,36.41467424,-99999.0,'11111222,11111222,99999999' 
TABS,ioos:station:wmo:42050:1,1997-04-02T01:00:00Z,28.8425,-94.2433,2.0,260.3036007,36.27822625,-99999.0,'11111222,11111222,99999999' 
TABS,ioos:station:wmo:42050:1,1997-04-02T01:30:00Z,28.8425,-94.2433,2.0,261.1303259,35.73732223,-99999.0,'11111222,11111222,99999999' 
TABS,ioos:station:wmo:42050:1,1997-04-02T02:00:00Z,28.8425,-94.2433,2.0,246.382483,37.56645977,-99999.0,'11111222,11111222,99999999' 
TABS,ioos:station:wmo:42050:1,1997-04-02T02:30:00Z,28.8425,-94.2433,2.0,253.7275204,46.252801,-99999.0,'11111222,11111222,99999999' 
TABS,ioos:station:wmo:42050:1,1997-04-02T03:00:00Z,28.8425,-94.2433,2.0,247.1152036,49.81053102,-99999.0,'11111222,11111222,99999999' 
TABS,ioos:station:wmo:42050:1,1997-04-02T03:30:00Z,28.8425,-94.2433,2.0,243.4402034,45.64709191,-99999.0,'11111222,11111222,99999999' 
TABS,ioos:station:wmo:42050:1,1997-04-02T04:00:00Z,28.8425,-94.2433,2.0,241.0053955,42.41607714,-99999.0,'11111222,11111222,99999999' 
TABS,ioos:station:wmo:42050:1,1997-04-02T04:30:00Z,28.8425,-94.2433,2.0,233.6861585,39.74987421,-99999.0,'11111222,11111222,99999999' 
TABS,ioos:station:wmo:42050:1,1997-04-02T05:00:00Z,28.8425,-94.2433,2.0,233.2231083,36.83004887,-99999.0,'11111222,11111222,99999999' 
TABS,ioos:station:wmo:42050:1,1997-04-02T05:30:00Z,28.8425,-94.2433,2.0,236.4594217,47.72656807,-99999.0,'11111222,11111222,99999999' 
TABS,ioos:station:wmo:42050:1,1997-04-02T06:00:00Z,28.8425,-94.2433,2.0,228.782186,49.52049475,-99999.0,'11111222,11111222,99999999' 
TABS,ioos:station:wmo:42050:1,1997-04-02T06:30:00Z,28.8425,-94.2433,2.0,224.8664595,45.61558177,-99999.0,'11111222,11111222,99999999' 
TABS,ioos:station:wmo:42050:1,1997-04-02T07:00:00Z,28.8425,-94.2433,2.0,238.2545994,45.02599471,-99999.0,'11111222,11111222,99999999' 
TABS,ioos:station:wmo:42050:1,1997-04-02T07:30:00Z,28.8425,-94.2433,2.0,234.6152356,39.1151454,-99999.0,'11111222,11111222,99999999' 
TABS,ioos:station:wmo:42050:1,1997-04-02T08:00:00Z,28.8425,-94.2433,2.0,241.3353382,38.21321499,-99999.0,'11111222,11111222,99999999' 
TABS,ioos:station:wmo:42050:1,1997-04-02T08:30:00Z,28.8425,-94.2433,2.0,243.6151429,42.57494568,-99999.0,'11111222,11111222,99999999' 
TABS,ioos:station:wmo:42050:1,1997-04-02T09:00:00Z,28.8425,-94.2433,2.0,245.9883803,41.75308013,-99999.0,'11111222,11111222,99999999' 
TABS,ioos:station:wmo:42050:1,1997-04-02T09:30:00Z,28.8425,-94.2433,2.0,246.737868,38.10777611,-99999.0,'11111222,11111222,99999999' 
TABS,ioos:station:wmo:42050:1,1997-04-02T10:00:00Z,28.8425,-94.2433,2.0,249.8681652,33.32604087,-99999.0,'11111222,11111222,99999999' 
TABS,ioos:station:wmo:42050:1,1997-04-02T10:30:00Z,28.8425,-94.2433,2.0,255.5961749,32.92488724,-99999.0,'11111222,11111222,99999999' 
TABS,ioos:station:wmo:42050:1,1997-04-02T11:00:00Z,28.8425,-94.2433,2.0,256.1681574,30.53543024,-99999.0,'11111222,11111222,99999999' 
TABS,ioos:station:wmo:42050:1,1997-04-02T11:30:00Z,28.8425,-94.2433,2.0,255.2857141,33.42617238,-99999.0,'11111222,11111222,99999999' 
TABS,ioos:station:wmo:42050:1,1997-04-02T12:00:00Z,28.8425,-94.2433,2.0,250.3864044,27.52712299,-99999.0,'11111222,11111222,99999999' 
TABS,ioos:station:wmo:42050:1,1997-04-02T12:30:00Z,28.8425,-94.2433,2.0,256.9380585,23.09758429,-99999.0,'11111222,11111222,99999999' 
TABS,ioos:station:wmo:42050:1,1997-04-02T13:00:00Z,28.8425,-94.2433,2.0,264.3766724,22.7595123,-99999.0,'11111222,11111222,99999999' 
TABS,ioos:station:wmo:42050:1,1997-04-02T13:30:00Z,28.8425,-94.2433,2.0,274.0860281,20.91314658,-99999.0,'11111222,11111222,99999999' 
TABS,ioos:station:wmo:42050:1,1997-04-02T14:00:00Z,28.8425,-94.2433,2.0,271.8450537,18.63965933,-99999.0,'11111222,11111222,99999999' 
TABS,ioos:station:wmo:42050:1,1997-04-02T14:30:00Z,28.8425,-94.2433,2.0,272.6516553,19.24059511,-99999.0,'11111222,11111222,99999999' 
TABS,ioos:station:wmo:42050:1,1997-04-02T15:00:00Z,28.8425,-94.2433,2.0,272.8030857,18.20177189,-99999.0,'11111222,11111222,99999999' 
TABS,ioos:station:wmo:42050:1,1997-04-02T15:30:00Z,28.8425,-94.2433,2.0,280.6327491,19.40312604,-99999.0,'11111222,11111222,99999999' 
TABS,ioos:station:wmo:42050:1,1997-04-02T16:00:00Z,28.8425,-94.2433,2.0,275.974421,21.42636227,-99999.0,'11111222,11111222,99999999' 
TABS,ioos:station:wmo:42050:1,1997-04-02T16:30:00Z,28.8425,-94.2433,2.0,260.1628736,26.16465746,-99999.0,'11111222,11111222,99999999' 
TABS,ioos:station:wmo:42050:1,1997-04-02T17:00:00Z,28.8425,-94.2433,2.0,258.8137278,25.36179804,-99999.0,'11111222,11111222,99999999' 
TABS,ioos:station:wmo:42050:1,1997-04-02T17:30:00Z,28.8425,-94.2433,2.0,255.1371119,20.35085502,-99999.0,'11111222,11111222,99999999' 
TABS,ioos:station:wmo:42050:1,1997-04-02T18:00:00Z,28.8425,-94.2433,2.0,254.4542928,28.91785089,-99999.0,'11111222,11111222,99999999' 
TABS,ioos:station:wmo:42050:1,1997-04-02T18:30:00Z,28.8425,-94.2433,2.0,248.5305062,28.49728584,-99999.0,'11111222,11111222,99999999' 
TABS,ioos:station:wmo:42050:1,1997-04-02T19:00:00Z,28.8425,-94.2433,2.0,244.8863422,31.59683845,-99999.0,'11111222,11111222,99999999' 
TABS,ioos:station:wmo:42050:1,1997-04-02T19:30:00Z,28.8425,-94.2433,2.0,248.7873789,26.36641804,-99999.0,'11111222,11111222,99999999' 
TABS,ioos:station:wmo:42050:1,1997-04-02T20:00:00Z,28.8425,-94.2433,2.0,251.1970509,30.06439256,-99999.0,'11111222,11111222,99999999' 
TABS,ioos:station:wmo:42050:1,1997-04-02T20:30:00Z,28.8425,-94.2433,2.0,260.2940275,34.4632703,-99999.0,'11111222,11111222,99999999' 
TABS,ioos:station:wmo:42050:1,1997-04-02T21:00:00Z,28.8425,-94.2433,2.0,258.3631786,35.44856697,-99999.0,'11111222,11111222,99999999' 
TABS,ioos:station:wmo:42050:1,1997-04-02T21:30:00Z,28.8425,-94.2433,2.0,256.1310298,37.29728811,-99999.0,'11111222,11111222,99999999' 
TABS,ioos:station:wmo:42050:1,1997-04-02T22:00:00Z,28.8425,-94.2433,2.0,251.0656364,38.12270321,-99999.0,'11111222,11111222,99999999' 
TABS,ioos:station:wmo:42050:1,1997-04-02T22:30:00Z,28.8425,-94.2433,2.0,255.228485,39.14361889,-99999.0,'11111222,11111222,99999999' 
TABS,ioos:station:wmo:42050:1,1997-04-02T23:00:00Z,28.8425,-94.2433,2.0,253.668047,42.39043288,-99999.0,'11111222,11111222,99999999' 
TABS,ioos:station:wmo:42050:1,1997-04-02T23:30:00Z,28.8425,-94.2433,2.0,248.8888224,39.28670258,-99999.0,'11111222,11111222,99999999' 
TABS,ioos:station:wmo:42050:1,1997-04-03T00:00:00Z,28.8425,-94.2433,2.0,240.1296494,33.51178449,-99999.0,'11111222,11111222,99999999' 
TABS,ioos:station:wmo:42050:1,1997-04-03T00:30:00Z,28.8425,-94.2433,2.0,230.4944384,28.57822423,-99999.0,'11111222,11111222,99999999' 
TABS,ioos:station:wmo:42050:1,1997-04-03T01:00:00Z,28.8425,-94.2433,2.0,234.3372254,29.89663861,-99999.0,'11111222,11111222,99999999' 
TABS,ioos:station:wmo:42050:1,1997-04-03T01:30:00Z,28.8425,-94.2433,2.0,248.3483049,31.90071159,-99999.0,'11111222,11111222,99999999' 
TABS,ioos:station:wmo:42050:1,1997-04-03T02:00:00Z,28.8425,-94.2433,2.0,247.2667426,33.92545062,-99999.0,'11111222,11111222,99999999' 
TABS,ioos:station:wmo:42050:1,1997-04-03T02:30:00Z,28.8425,-94.2433,2.0,241.4048697,32.07192074,-99999.0,'11111222,11111222,99999999' 
TABS,ioos:station:wmo:42050:1,1997-04-03T03:00:00Z,28.8425,-94.2433,2.0,245.9432095,30.34569162,-99999.0,'11111222,11111222,99999999' 
TABS,ioos:station:wmo:42050:1,1997-04-03T03:30:00Z,28.8425,-94.2433,2.0,254.4844634,23.96322599,-99999.0,'11111222,11111222,99999999' 
TABS,ioos:station:wmo:42050:1,1997-04-03T04:00:00Z,28.8425,-94.2433,2.0,253.1689097,28.80382787,-99999.0,'11111222,11111222,99999999' 
TABS,ioos:station:wmo:42050:1,1997-04-03T04:30:00Z,28.8425,-94.2433,2.0,255.3704204,31.87331329,-99999.0,'11111222,11111222,99999999' 
TABS,ioos:station:wmo:42050:1,1997-04-03T05:00:00Z,28.8425,-94.2433,2.0,239.4333807,36.33970969,-99999.0,'11111222,11111222,99999999' 
TABS,ioos:station:wmo:42050:1,1997-04-03T05:30:00Z,28.8425,-94.2433,2.0,230.7661486,34.62545884,-99999.0,'11111222,11111222,99999999' 
TABS,ioos:station:wmo:42050:1,1997-04-03T06:00:00Z,28.8425,-94.2433,2.0,239.1204881,15.10046688,-99999.0,'11111222,11111222,99999999' 
TABS,ioos:station:wmo:42050:1,1997-04-03T06:30:00Z,28.8425,-94.2433,2.0,263.116745,26.11822735,-99999.0,'11111222,11111222,99999999' 
TABS,ioos:station:wmo:42050:1,1997-04-03T07:00:00Z,28.8425,-94.2433,2.0,254.854206,27.94048854,-99999.0,'11111222,11111222,99999999' 
TABS,ioos:station:wmo:42050:1,1997-04-03T07:30:00Z,28.8425,-94.2433,2.0,250.6755086,30.15911139,-99999.0,'11111222,11111222,99999999' 
TABS,ioos:station:wmo:42050:1,1997-04-03T08:00:00Z,28.8425,-94.2433,2.0,242.06917,44.85484366,-99999.0,'11111222,11111222,99999999' 
TABS,ioos:station:wmo:42050:1,1997-04-03T08:30:00Z,28.8425,-94.2433,2.0,236.4215978,42.56222739,-99999.0,'11111222,11111222,99999999' 
TABS,ioos:station:wmo:42050:1,1997-04-03T09:00:00Z,28.8425,-94.2433,2.0,242.0991258,45.8607948,-99999.0,'11111222,11111222,99999999' 
TABS,ioos:station:wmo:42050:1,1997-04-03T09:30:00Z,28.8425,-94.2433,2.0,231.9422957,53.17542007,-99999.0,'11111222,11111222,99999999' 
TABS,ioos:station:wmo:42050:1,1997-04-03T10:00:00Z,28.8425,-94.2433,2.0,228.4039669,60.37324656,-99999.0,'11111222,11111222,99999999' 
TABS,ioos:station:wmo:42050:1,1997-04-03T10:30:00Z,28.8425,-94.2433,2.0,237.9904303,63.25749363,-99999.0,'11111222,11111222,99999999' 
TABS,ioos:station:wmo:42050:1,1997-04-03T11:00:00Z,28.8425,-94.2433,2.0,243.2239321,71.76485073,-99999.0,'11111222,11111222,99999999' 
TABS,ioos:station:wmo:42050:1,1997-04-03T11:30:00Z,28.8425,-94.2433,2.0,249.6488889,59.12020382,-99999.0,'11111222,11111222,99999999' 
TABS,ioos:station:wmo:42050:1,1997-04-03T12:00:00Z,28.8425,-94.2433,2.0,256.7805251,65.81388455,-99999.0,'11111222,11111222,99999999' 
TABS,ioos:station:wmo:42050:1,1997-04-03T12:30:00Z,28.8425,-94.2433,2.0,261.3954431,68.71333204,-99999.0,'11111222,11111222,99999999' 
TABS,ioos:station:wmo:42050:1,1997-04-03T13:00:00Z,28.8425,-94.2433,2.0,262.0972819,68.29856953,-99999.0,'11111222,11111222,99999999' 
TABS,ioos:station:wmo:42050:1,1997-04-03T13:30:00Z,28.8425,-94.2433,2.0,264.4026345,65.72333071,-99999.0,'11111222,11111222,99999999' 
TABS,ioos:station:wmo:42050:1,1997-04-03T14:00:00Z,28.8425,-94.2433,2.0,262.738451,63.69077563,-99999.0,'11111222,11111222,99999999' 
TABS,ioos:station:wmo:42050:1,1997-04-03T14:30:00Z,28.8425,-94.2433,2.0,263.3059625,53.70608159,-99999.0,'11111222,11111222,99999999' 
TABS,ioos:station:wmo:42050:1,1997-04-03T15:00:00Z,28.8425,-94.2433,2.0,269.0654937,36.80489098,-99999.0,'11111222,11111222,99999999' 
TABS,ioos:station:wmo:42050:1,1997-04-03T15:30:00Z,28.8425,-94.2433,2.0,276.3094975,28.4825034,-99999.0,'11111222,11111222,99999999' 
TABS,ioos:station:wmo:42050:1,1997-04-03T16:00:00Z,28.8425,-94.2433,2.0,257.6862232,26.54054446,-99999.0,'11111222,11111222,99999999' 
TABS,ioos:station:wmo:42050:1,1997-04-03T16:30:00Z,28.8425,-94.2433,2.0,275.8142418,17.67089415,-99999.0,'11111222,11111222,99999999' 
TABS,ioos:station:wmo:42050:1,1997-04-03T17:00:00Z,28.8425,-94.2433,2.0,280.8742028,11.07892143,-99999.0,'11111222,11111222,99999999' 
TABS,ioos:station:wmo:42050:1,1997-04-03T17:30:00Z,28.8425,-94.2433,2.0,292.3842953,8.219300457,-99999.0,'11133222,11111222,99999999' 
TABS,ioos:station:wmo:42050:1,1997-04-03T18:00:00Z,28.8425,-94.2433,2.0,303.0461985,7.647025566,-99999.0,'11133222,11111222,99999999' 
TABS,ioos:station:wmo:42050:1,1997-04-03T18:30:00Z,28.8425,-94.2433,2.0,279.9997757,7.717227481,-99999.0,'11133222,11111222,99999999' 
TABS,ioos:station:wmo:42050:1,1997-04-03T19:00:00Z,28.8425,-94.2433,2.0,267.8906269,12.22828279,-99999.0,'11111222,11111222,99999999' 
TABS,ioos:station:wmo:42050:1,1997-04-03T19:30:00Z,28.8425,-94.2433,2.0,257.9173521,12.80362449,-99999.0,'11111222,11111222,99999999' 
TABS,ioos:station:wmo:42050:1,1997-04-03T20:00:00Z,28.8425,-94.2433,2.0,249.945776,15.22295635,-99999.0,'11111222,11111222,99999999' 
TABS,ioos:station:wmo:42050:1,1997-04-03T20:30:00Z,28.8425,-94.2433,2.0,221.7636291,16.78519586,-99999.0,'11111222,11111222,99999999' 
TABS,ioos:station:wmo:42050:1,1997-04-03T21:00:00Z,28.8425,-94.2433,2.0,234.5121997,15.91663281,-99999.0,'11111222,11111222,99999999' 
TABS,ioos:station:wmo:42050:1,1997-04-03T21:30:00Z,28.8425,-94.2433,2.0,231.5459598,13.89330774,-99999.0,'11111222,11111222,99999999' 
TABS,ioos:station:wmo:42050:1,1997-04-03T22:00:00Z,28.8425,-94.2433,2.0,235.5223598,20.79212591,-99999.0,'11111222,11111222,99999999' 
TABS,ioos:station:wmo:42050:1,1997-04-03T22:30:00Z,28.8425,-94.2433,2.0,232.2423834,20.92050908,-99999.0,'11111222,11111222,99999999' 
TABS,ioos:station:wmo:42050:1,1997-04-03T23:00:00Z,28.8425,-94.2433,2.0,245.6477619,24.20336547,-99999.0,'11111222,11111222,99999999' 
TABS,ioos:station:wmo:42050:1,1997-04-03T23:30:00Z,28.8425,-94.2433,2.0,247.5081374,66.60632102,-99999.0,'11111222,11111222,99999999' 
TABS,ioos:station:wmo:42050:1,1997-04-04T00:00:00Z,28.8425,-94.2433,2.0,253.7531032,70.30760201,-99999.0,'11111222,11111222,99999999' 
TABS,ioos:station:wmo:42050:1,1997-04-04T00:30:00Z,28.8425,-94.2433,2.0,257.0643015,65.89211561,-99999.0,'11111222,11111222,99999999' 
TABS,ioos:station:wmo:42050:1,1997-04-04T01:00:00Z,28.8425,-94.2433,2.0,257.9030351,66.13855532,-99999.0,'11111222,11111222,99999999' 
TABS,ioos:station:wmo:42050:1,1997-04-04T01:30:00Z,28.8425,-94.2433,2.0,257.3806852,62.75588976,-99999.0,'11111222,11111222,99999999' 
TABS,ioos:station:wmo:42050:1,1997-04-04T02:00:00Z,28.8425,-94.2433,2.0,264.6197522,55.67524854,-99999.0,'11111222,11111222,99999999' 
TABS,ioos:station:wmo:42050:1,1997-04-04T02:30:00Z,28.8425,-94.2433,2.0,278.944451,35.4409396,-99999.0,'11111222,11111222,99999999' 
TABS,ioos:station:wmo:42050:1,1997-04-04T03:00:00Z,28.8425,-94.2433,2.0,272.7387608,24.90844234,-99999.0,'11111222,11111222,99999999' 
TABS,ioos:station:wmo:42050:1,1997-04-04T03:30:00Z,28.8425,-94.2433,2.0,279.1786745,25.20267446,-99999.0,'11111222,11111222,99999999' 
TABS,ioos:station:wmo:42050:1,1997-04-04T04:00:00Z,28.8425,-94.2433,2.0,279.6337887,23.12610862,-99999.0,'11111222,11111222,99999999' 
TABS,ioos:station:wmo:42050:1,1997-04-04T04:30:00Z,28.8425,-94.2433,2.0,285.3015492,16.37029322,-99999.0,'11111222,11111222,99999999' 
TABS,ioos:station:wmo:42050:1,1997-04-04T05:00:00Z,28.8425,-94.2433,2.0,267.573941,21.0288421,-99999.0,'11111222,11111222,99999999' 
TABS,ioos:station:wmo:42050:1,1997-04-04T05:30:00Z,28.8425,-94.2433,2.0,260.2821851,15.87781156,-99999.0,'11111222,11111222,99999999' 
TABS,ioos:station:wmo:42050:1,1997-04-04T06:00:00Z,28.8425,-94.2433,2.0,249.6962183,20.17340824,-99999.0,'11111222,11111222,99999999' 
TABS,ioos:station:wmo:42050:1,1997-04-04T06:30:00Z,28.8425,-94.2433,2.0,244.0789375,23.86035415,-99999.0,'11111222,11111222,99999999' 
TABS,ioos:station:wmo:42050:1,1997-04-04T07:00:00Z,28.8425,-94.2433,2.0,236.7252841,29.05318743,-99999.0,'11111222,11111222,99999999' 
TABS,ioos:station:wmo:42050:1,1997-04-04T07:30:00Z,28.8425,-94.2433,2.0,231.1949058,35.18606116,-99999.0,'11111222,11111222,99999999' 
TABS,ioos:station:wmo:42050:1,1997-04-04T08:00:00Z,28.8425,-94.2433,2.0,230.8402092,39.39945304,-99999.0,'11111222,11111222,99999999' 
TABS,ioos:station:wmo:42050:1,1997-04-04T08:30:00Z,28.8425,-94.2433,2.0,229.4202859,36.87926518,-99999.0,'11111222,11111222,99999999' 
TABS,ioos:station:wmo:42050:1,1997-04-04T09:00:00Z,28.8425,-94.2433,2.0,235.3568848,42.20187792,-99999.0,'11111222,11111222,99999999' 
TABS,ioos:station:wmo:42050:1,1997-04-04T09:30:00Z,28.8425,-94.2433,2.0,240.0180098,44.72482644,-99999.0,'11111222,11111222,99999999' 
TABS,ioos:station:wmo:42050:1,1997-04-04T10:00:00Z,28.8425,-94.2433,2.0,242.8526296,39.18687663,-99999.0,'11111222,11111222,99999999' 
TABS,ioos:station:wmo:42050:1,1997-04-04T10:30:00Z,28.8425,-94.2433,2.0,250.5044216,35.71771689,-99999.0,'11111222,11111222,99999999' 
TABS,ioos:station:wmo:42050:1,1997-04-04T11:00:00Z,28.8425,-94.2433,2.0,223.5952375,51.64137973,-99999.0,'11111222,11111222,99999999' 
TABS,ioos:station:wmo:42050:1,1997-04-04T11:30:00Z,28.8425,-94.2433,2.0,261.6448855,32.82839168,-99999.0,'11111222,11111222,99999999' 
TABS,ioos:station:wmo:42050:1,1997-04-04T12:00:00Z,28.8425,-94.2433,2.0,272.511926,34.00266166,-99999.0,'11111222,11111222,99999999' 
TABS,ioos:station:wmo:42050:1,1997-04-04T12:30:00Z,28.8425,-94.2433,2.0,272.8909728,32.52137758,-99999.0,'11111222,11111222,99999999' 
TABS,ioos:station:wmo:42050:1,1997-04-04T13:00:00Z,28.8425,-94.2433,2.0,265.6408336,27.49953636,-99999.0,'11111222,11111222,99999999' 
TABS,ioos:station:wmo:42050:1,1997-04-04T13:30:00Z,28.8425,-94.2433,2.0,269.6773348,26.67042182,-99999.0,'11111222,11111222,99999999' 
TABS,ioos:station:wmo:42050:1,1997-04-04T14:00:00Z,28.8425,-94.2433,2.0,277.3268104,30.34776598,-99999.0,'11111222,11111222,99999999' 
TABS,ioos:station:wmo:42050:1,1997-04-04T14:30:00Z,28.8425,-94.2433,2.0,280.8042498,39.74448515,-99999.0,'11111222,11111222,99999999' 
TABS,ioos:station:wmo:42050:1,1997-04-04T15:00:00Z,28.8425,-94.2433,2.0,280.8859225,39.44984284,-99999.0,'11111222,11111222,99999999' 
TABS,ioos:station:wmo:42050:1,1997-04-04T15:30:00Z,28.8425,-94.2433,2.0,280.0385988,38.43842479,-99999.0,'11111222,11111222,99999999' 
TABS,ioos:station:wmo:42050:1,1997-04-04T16:00:00Z,28.8425,-94.2433,2.0,284.8417688,36.07345977,-99999.0,'11111222,11111222,99999999' 